User: anonymous   Login
Location: Mason Neck State Park
(38.6428°N, 77.1981°W)
Time: 17:20:48
(UTC-04:00)
Language:

Cosmos 1400 Rocket - Orbit

View from above orbital plane
View from above orbital plane
View from above satellite
View from above satellite

Ground track
Ground track

The orbit data is extracted from the following two-line orbital elements,

1 13403U 82079B   17228.82596996 -.00000151 +00000-0 -11724-4 0  9999
2 13403 081.1697 199.8846 0035052 079.1387 281.3778 15.06620372905631
Epoch (UTC): 16 August 2017 19:49:23
Eccentricity: 0.0035052
inclination: 81.1697°
perigee height: 522 km
apogee height: 571 km
right ascension of ascending node: 199.8846°
argument of perigee: 79.1387°
revolutions per day: 15.06620372
mean anomaly at epoch: 281.3778°
orbit number at epoch: 90563

The dashed part of the orbit path shows where the satellite is in the earth's shadow,  

DLR